Weather History for KPTS - October, 2013

Change the Weather History Date:

Thursday, October 3, 2013

  Actual Average (KJLN) Record (KJLN)
Temperature  
Mean Temperature 77 °F 64 °F  
Max Temperature 84 °F 75 °F 92 °F (2006)
Min Temperature 70 °F 52 °F 32 °F (1987)
Degree Days  
Heating Degree Days 0 4  
Month to date heating degree days 12  
Since 1 July heating degree days 54  
Cooling Degree Days 12 3  
Month to date cooling degree days 9  
Year to date cooling degree days 1651  
Growing Degree Days 27 (Base 50)    
Moisture  
Dew Point 70 °F    
Average Humidity 78    
Maximum Humidity 100    
Minimum Humidity 56    
Precipitation  
Precipitation 0.00 in 0.13 in 2.92 in (1990)
Month to date precipitation 0.40  
Year to date precipitation 36.32  
Sea Level Pressure  
Sea Level Pressure 29.86 in    
Wind  
Wind Speed 11 mph (South)    
Max Wind Speed 21 mph    
Max Gust Speed 26 mph    
Visibility 10 miles    
Events      
T = Trace of Precipitation, MM = Missing Value Source: NWS Daily Summary

Daily Weather History Graph

Daily Weather History Graph

Search for Another Location

Airport or City:

Trip Planner

Search our weather history database for the weather conditions in past years. The results will help you decide how hot, cold, wet, or windy it might be!

Date:

Astronomy

Oct. 03, 2013 Rise Set
Actual Time 7:16 AM CDT 6:58 PM CDT
Civil Twilight 6:50 AM CDT 7:24 PM CDT
Nautical Twilight 6:20 AM CDT 7:54 PM CDT
Astronomical Twilight 5:49 AM CDT 8:25 PM CDT
Moon 5:51 AM CDT (10/3) 6:07 PM CDT (10/3)
Length of Visible Light 12h 34m
Length of Day
11h 42m
Waning Crescent, 2% of the Moon is Illuminated
Oct 3
Waning Crescent
Oct 4
New
Oct 11
First Quarter
Oct 18
Full
Oct 26
Last Quarter

Hourly Weather History & Observations

Time (CDT) Temp. Heat Index Dew Point Humidity Pressure Visibility Wind Dir Wind Speed Gust Speed Precip Events Conditions
12:15 AM 72.1 °F - 72.0 °F 99% 29.92 in 10.0 mi South 8.1 mph - N/A   Clear
12:35 AM 72.0 °F - 72.1 °F 100% 29.91 in 10.0 mi South 8.1 mph - N/A   Clear
12:55 AM 71.4 °F - 71.6 °F 100% 29.91 in 10.0 mi South 9.2 mph - N/A   Clear
1:15 AM 70.9 °F - 71.1 °F 100% 29.90 in 10.0 mi South 8.1 mph - N/A   Scattered Clouds
1:35 AM 70.9 °F - 71.1 °F 100% 29.90 in 10.0 mi South 8.1 mph - N/A   Scattered Clouds
1:55 AM 70.9 °F - 71.1 °F 100% 29.90 in 10.0 mi South 5.8 mph - N/A   Clear
2:15 AM 70.9 °F - - N/A% 29.90 in 10.0 mi SSE 5.8 mph - N/A   Mostly Cloudy
2:35 AM 70.9 °F - 71.1 °F 100% 29.90 in 10.0 mi South 5.8 mph - N/A   Overcast
2:55 AM 70.9 °F - 71.1 °F 100% 29.90 in 10.0 mi South 6.9 mph - N/A   Scattered Clouds
3:15 AM 70.9 °F - - N/A% 29.90 in 10.0 mi South 5.8 mph - N/A   Scattered Clouds
3:35 AM 70.9 °F - - N/A% 29.90 in 10.0 mi South 5.8 mph - N/A   Scattered Clouds
3:55 AM 70.9 °F - - N/A% 29.90 in 10.0 mi SSE 6.9 mph - N/A   Scattered Clouds
4:15 AM 70.9 °F - - N/A% 29.90 in 10.0 mi South 6.9 mph - N/A   Clear
4:35 AM 70.9 °F - - N/A% 29.90 in 10.0 mi South 4.6 mph - N/A   Clear
4:55 AM 70.9 °F - - N/A% 29.89 in 10.0 mi South 6.9 mph - N/A   Clear
5:15 AM 70.9 °F - - N/A% 29.90 in 10.0 mi South 6.9 mph - N/A   Clear
5:35 AM 70.9 °F - - N/A% 29.89 in 10.0 mi South 10.4 mph - N/A   Clear
5:55 AM 70.9 °F - 71.1 °F 100% 29.89 in 10.0 mi South 8.1 mph - N/A   Clear
6:15 AM 70.9 °F - 71.1 °F 100% 29.89 in 10.0 mi South 8.1 mph - N/A   Clear
6:35 AM 70.9 °F - 71.1 °F 100% 29.89 in 10.0 mi South 9.2 mph - N/A   Clear
6:55 AM 70.9 °F - 71.1 °F 100% 29.89 in 10.0 mi South 10.4 mph - N/A   Clear
7:15 AM 70.9 °F - 71.1 °F 100% 29.89 in 10.0 mi South 10.4 mph 17.3 mph N/A   Clear
7:35 AM 70.9 °F - 71.1 °F 100% 29.89 in 10.0 mi South 10.4 mph - N/A   Clear
7:55 AM 70.9 °F - 71.1 °F 100% 29.89 in 10.0 mi South 9.2 mph - N/A   Clear
8:15 AM 71.2 °F - 71.4 °F 100% 29.90 in 10.0 mi South 10.4 mph - N/A   Clear
8:35 AM 72.9 °F - 73.2 °F 100% 29.90 in 10.0 mi SSW 12.7 mph - N/A   Scattered Clouds
8:55 AM 75.2 °F - 75.2 °F 100% 29.90 in 10.0 mi South 15.0 mph 20.7 mph N/A   Scattered Clouds
9:15 AM 76.1 °F - 75.2 °F 97% 29.90 in 10.0 mi South 17.3 mph 23.0 mph N/A   Scattered Clouds
9:35 AM 76.1 °F - 74.1 °F 94% 29.90 in 10.0 mi SSW 18.4 mph 24.2 mph N/A   Scattered Clouds
9:55 AM 76.1 °F - 72.5 °F 89% 29.90 in 10.0 mi SSW 18.4 mph 24.2 mph N/A   Scattered Clouds
10:15 AM 77.7 °F - 73.0 °F 85% 29.90 in 10.0 mi SSW 18.4 mph 25.3 mph N/A   Clear
10:35 AM 78.4 °F - 72.9 °F 83% 29.89 in 10.0 mi SSW 15.0 mph 23.0 mph N/A   Scattered Clouds
10:55 AM 78.8 °F - 72.1 °F 80% 29.89 in 10.0 mi SSW 20.7 mph 25.3 mph N/A   Clear
11:15 AM 80.4 °F 84.2 °F 71.4 °F 74% 29.88 in 10.0 mi SSW 16.1 mph 21.9 mph N/A   Clear
11:35 AM 81.0 °F 84.4 °F 69.8 °F 69% 29.88 in 10.0 mi SSW 15.0 mph - N/A   Clear
11:55 AM 81.0 °F 84.1 °F 69.3 °F 67% 29.86 in 10.0 mi SSW 17.3 mph 26.5 mph N/A   Clear
12:15 PM 81.9 °F 85.4 °F 69.4 °F 66% 29.87 in 10.0 mi SSW 17.3 mph 26.5 mph N/A   Clear
12:35 PM 81.9 °F 85.2 °F 69.3 °F 65% 29.87 in 10.0 mi SSW 17.3 mph 25.3 mph N/A   Scattered Clouds
12:55 PM 82.9 °F 86.7 °F 69.8 °F 64% 29.86 in 10.0 mi SSW 19.6 mph 25.3 mph N/A   Scattered Clouds
1:15 PM 82.9 °F 86.7 °F 69.4 °F 64% 29.85 in 10.0 mi SSW 18.4 mph 26.5 mph N/A   Scattered Clouds
1:35 PM 83.7 °F 87.7 °F 69.8 °F 63% 29.84 in 10.0 mi SSW 16.1 mph 26.5 mph N/A   Scattered Clouds
1:55 PM 83.1 °F 87.1 °F 69.6 °F 64% 29.83 in 10.0 mi SSW 20.7 mph 25.3 mph N/A   Mostly Cloudy
2:15 PM 82.9 °F 86.7 °F 69.6 °F 64% 29.83 in 10.0 mi SSW 16.1 mph 19.6 mph N/A   Mostly Cloudy
2:35 PM 83.5 °F 86.9 °F 68.9 °F 61% 29.82 in 10.0 mi SSW 18.4 mph 24.2 mph N/A   Scattered Clouds
2:55 PM 83.8 °F 87.5 °F 68.9 °F 61% 29.82 in 10.0 mi SSW 17.3 mph 24.2 mph N/A   Scattered Clouds
3:15 PM 83.1 °F 86.3 °F 68.2 °F 61% 29.82 in 10.0 mi South 12.7 mph 21.9 mph N/A   Scattered Clouds
3:35 PM 84.0 °F 87.3 °F 68.2 °F 59% 29.82 in 10.0 mi South 12.7 mph 21.9 mph N/A   Scattered Clouds
3:55 PM 84.0 °F 87.0 °F 68.0 °F 58% 29.82 in 10.0 mi SSW 15.0 mph 23.0 mph N/A   Clear
4:15 PM 83.8 °F 86.7 °F 67.8 °F 58% 29.81 in 10.0 mi South 12.7 mph 20.7 mph N/A   Scattered Clouds
4:35 PM 84.4 °F 87.1 °F 67.3 °F 56% 29.81 in 10.0 mi South 19.6 mph - N/A   Scattered Clouds
4:55 PM 83.8 °F 86.3 °F 66.6 °F 56% 29.81 in 10.0 mi South 16.1 mph 20.7 mph N/A   Scattered Clouds
5:15 PM 83.5 °F 85.7 °F 66.4 °F 56% 29.81 in 10.0 mi SSW 15.0 mph 21.9 mph N/A   Clear
5:35 PM 83.1 °F 85.4 °F 66.6 °F 57% 29.81 in 10.0 mi South 10.4 mph 17.3 mph N/A   Scattered Clouds
5:55 PM 82.4 °F 84.6 °F 66.2 °F 58% 29.80 in 10.0 mi South 13.8 mph 24.2 mph N/A   Scattered Clouds
6:15 PM 82.0 °F 84.3 °F 66.6 °F 59% 29.80 in 10.0 mi South 10.4 mph 18.4 mph N/A   Clear
6:35 PM 81.0 °F 83.4 °F 67.3 °F 63% 29.81 in 10.0 mi South 10.4 mph - N/A   Clear
6:55 PM 80.2 °F 82.7 °F 67.6 °F 65% 29.81 in 10.0 mi South 11.5 mph - N/A   Clear
7:15 PM 78.6 °F - 66.7 °F 67% 29.81 in 10.0 mi South 12.7 mph - N/A   Clear
7:35 PM 78.4 °F - 67.1 °F 68% 29.81 in 10.0 mi South 12.7 mph - N/A   Clear
7:55 PM 78.3 °F - 68.0 °F 71% 29.82 in 10.0 mi South 10.4 mph - N/A   Clear
8:15 PM 77.4 °F - 67.8 °F 72% 29.82 in 10.0 mi South 10.4 mph - N/A   Clear
8:35 PM 76.1 °F - 67.5 °F 74% 29.82 in 10.0 mi South 12.7 mph 16.1 mph N/A   Clear
8:55 PM 76.1 °F - 66.9 °F 73% 29.83 in 10.0 mi South 8.1 mph - N/A   Clear
9:15 PM 76.1 °F - 67.1 °F 74% 29.84 in 10.0 mi South 11.5 mph - N/A   Clear
9:35 PM 76.1 °F - 67.6 °F 75% 29.84 in 10.0 mi South 10.4 mph - N/A   Clear
9:55 PM 76.1 °F - 68.2 °F 76% 29.84 in 10.0 mi South 9.2 mph - N/A   Clear
10:15 PM 76.1 °F - 68.9 °F 78% 29.85 in 10.0 mi South 10.4 mph - N/A   Clear
10:35 PM 76.1 °F - 68.9 °F 78% 29.85 in 10.0 mi South 9.2 mph - N/A   Clear
11:35 PM 76.1 °F - 70.0 °F 81% 29.85 in 10.0 mi South 11.5 mph - N/A   Clear
11:55 PM 76.1 °F - 70.5 °F 83% 29.85 in 10.0 mi South 11.5 mph - N/A   Clear